Вернуться в каталог

OPS 7218

TRANSIT 16

АктивенНавигацияPO
NORAD 2807·PAYLOAD·🇺🇸 United States

Запущен May 18, 1967 с Vandenberg Space Force Base

Loading…

Ближайшие Пролёты (ближайшие 24 часа)

TLE

СвежийSource: Space-Track

Эпоха: Sep 14, 2026, 03:49 UTC

1 02807U 67048A   26257.15906020  .00000086  00000-0  11701-3 0  9994
2 02807  89.6784 344.9732 0021307  44.3621 331.7815 13.50779629919945

Отслеживайте OPS 7218 в реальном времени с AllMySat

Download on the App Store